Location: Newark
(60.0000°N, 100.0000°E)
Time: 15:04:03
(UTC+00:00)

N. Korean satellite - Pass Details

Date: 25 November 2019
Orbit: 456 x 506 km, 97.2° (Epoch: 06 December)

Event Time Altitude Azimuth Distance (km) Brightness Sun altitude
Rises 22:21:44 0° 23° (NNE) 2,616 10.6 -23.6°
Reaches altitude 10° 22:24:17 10° 41° (NE) 1,719 9.8 -23.2°
Maximum altitude 22:27:03 20° 89° (E) 1,214 9.4 -22.9°
Drops below altitude 10° 22:29:47 10° 138° (SE) 1,691 9.9 -22.6°
Sets 22:32:16 0° 156° (SSE) 2,557 10.6 -22.2°
